Weather History for Sheridan, WY

Change the Weather History Date:

Sunday, January 13, 2013

  Actual Average Record
Temperature  
Mean Temperature 9 °F 24 °F  
Max Temperature 17 °F 36 °F 60 °F (1943)
Min Temperature 1 °F 11 °F -26 °F (1997)
Degree Days  
Heating Degree Days 56 41  
Month to date heating degree days 565 542  
Since 1 July heating degree days 3520 3725  
Cooling Degree Days 0 0  
Month to date cooling degree days 0 0  
Year to date cooling degree days 0 0  
Moisture  
Dew Point 2 °F    
Average Humidity 72    
Maximum Humidity 87    
Minimum Humidity 56    
Precipitation  
Precipitation T in 0.01 in 0.38 in (1928)
Month to date precipitation 0.02 0.21  
Year to date precipitation 0.02 0.21  
Sea Level Pressure  
Sea Level Pressure 30.26 in    
Wind  
Wind Speed 7 mph (WNW)    
Max Wind Speed 18 mph    
Max Gust Speed 22 mph    
Visibility 9 miles    
Events Snow    
T = Trace of Precipitation, MM = Missing Value Source: NWS Daily Summary

Daily Weather History Graph

Daily Weather History Graph

Search for Another Location

Airport:

Trip Planner

Search our weather history database for the weather conditions in past years. The results will help you decide how hot, cold, wet, or windy it might be!

Date:

Astronomy

Jan. 13, 2013 Rise Set
Actual Time 7:42 AM MST 4:51 PM MST
Civil Twilight 7:09 AM MST 5:23 PM MST
Nautical Twilight 6:33 AM MST 6:00 PM MST
Astronomical Twilight 5:58 AM MST 6:35 PM MST
Moon 8:35 AM MST (1/13) 7:41 PM MST (1/13)
Length of Visible Light 10h 14m
Length of Day
9h 08m
Waxing Crescent, 5% of the Moon is Illuminated
Jan 13
Waxing Crescent
Jan 18
First Quarter
Jan 26
Full
Feb 3
Last Quarter
Feb 10
New

Hourly Weather History & Observations

Time (MST) Temp. Windchill Dew Point Humidity Pressure Visibility Wind Dir Wind Speed Gust Speed Precip Events Conditions
12:08 AM 8.6 °F -1.3 °F 3.2 °F 79% 30.07 in 2.5 mi NW 5.8 mph - 0.00 in Snow Light Snow
12:16 AM 8.6 °F 0.1 °F 3.2 °F 79% 30.07 in 3.0 mi NW 4.6 mph - 0.00 in Snow Light Snow
12:53 AM 9.0 °F - 5.0 °F 84% 30.28 in 5.0 mi Calm Calm - 0.00 in Snow Light Snow
1:26 AM 6.8 °F -2.0 °F 3.2 °F 85% 30.07 in 8.0 mi SSW 4.6 mph - 0.00 in   Overcast
1:50 AM 6.8 °F -0.1 °F 3.2 °F 85% 30.07 in 10.0 mi SSW 3.5 mph - 0.00 in   Overcast
1:53 AM 7.0 °F 0.1 °F 3.0 °F 84% 30.29 in 9.0 mi SSW 3.5 mph - 0.00 in   Overcast
2:53 AM 8.1 °F 1.4 °F 3.9 °F 83% 30.29 in 4.0 mi SW 3.5 mph - 0.00 in Snow Light Snow
3:19 AM 6.8 °F - 3.2 °F 85% 30.07 in 8.0 mi Calm Calm - N/A   Overcast
3:46 AM 5.0 °F -4.1 °F 1.4 °F 85% 30.06 in 10.0 mi WNW 4.6 mph - 0.00 in   Overcast
3:53 AM 6.1 °F -2.8 °F 1.9 °F 83% 30.29 in 10.0 mi WNW 4.6 mph - 0.00 in   Overcast
4:53 AM 5.0 °F -2.1 °F 1.0 °F 84% 30.30 in 10.0 mi West 3.5 mph - N/A   Overcast
5:53 AM 7.0 °F -1.7 °F 1.9 °F 80% 30.30 in 6.0 mi WNW 4.6 mph - N/A   Haze
6:53 AM 6.1 °F - 1.9 °F 83% 30.32 in 10.0 mi Calm Calm - N/A   Overcast
7:53 AM 8.1 °F -2.0 °F 1.9 °F 76% 30.32 in 10.0 mi NNW 5.8 mph - N/A   Overcast
8:53 AM 10.9 °F -4.1 °F 3.9 °F 73% 30.35 in 10.0 mi NNW 12.7 mph - N/A   Overcast
9:53 AM 12.0 °F -2.0 °F 3.9 °F 70% 30.35 in 10.0 mi NW 11.5 mph - N/A   Overcast
10:53 AM 14.0 °F 0.5 °F 5.0 °F 67% 30.33 in 10.0 mi NW 11.5 mph - N/A   Overcast
11:53 AM 14.0 °F -2.5 °F 5.0 °F 67% 30.29 in 10.0 mi NW 17.3 mph - N/A   Overcast
12:53 PM 16.0 °F 2.9 °F 5.0 °F 62% 30.27 in 10.0 mi NNW 11.5 mph - N/A   Partly Cloudy
1:53 PM 17.1 °F 3.6 °F 5.0 °F 59% 30.28 in 10.0 mi NW 12.7 mph - N/A   Overcast
2:53 PM 15.1 °F 0.5 °F 3.0 °F 59% 30.29 in 10.0 mi NW 13.8 mph - N/A   Overcast
3:53 PM 16.0 °F 1.7 °F 3.0 °F 57% 30.30 in 10.0 mi NNW 13.8 mph - N/A   Overcast
4:53 PM 12.9 °F 3.8 °F 3.0 °F 65% 30.31 in 10.0 mi NW 5.8 mph - N/A   Overcast
5:53 PM 9.0 °F -0.9 °F 1.0 °F 70% 30.32 in 10.0 mi West 5.8 mph - N/A   Overcast
6:53 PM 3.0 °F -6.4 °F -4.0 °F 73% 30.33 in 10.0 mi WSW 4.6 mph - N/A   Clear
7:53 PM 3.0 °F - -2.9 °F 76% 30.32 in 10.0 mi Calm Calm - N/A   Overcast
8:53 PM 3.0 °F -6.4 °F -2.9 °F 76% 30.31 in 10.0 mi SSE 4.6 mph - N/A   Mostly Cloudy
9:53 PM 6.1 °F -4.3 °F -4.0 °F 63% 30.29 in 10.0 mi SSE 5.8 mph - N/A   Overcast
10:53 PM 6.1 °F - -4.0 °F 63% 30.28 in 10.0 mi Calm Calm - N/A   Mostly Cloudy
11:53 PM 9.0 °F 2.4 °F -2.9 °F 59% 30.26 in 10.0 mi SSE 3.5 mph - N/A   Overcast